This is the latest recevied weather packets stored in our database for station/object EB2EMZ-15. If no packets are shown the sender has not sent any weather packets the latest 10 day(s).
| Time | Temp. | Humidity | Pressure | Rain* | Wind** | Luminosity | Snow |
|---|---|---|---|---|---|---|---|
| 1778083213 | 14.44° C | 77% | 993.8 hPa | 0 mm | - | - | - |
| 1778082913 | 14.44° C | 77% | 993.7 hPa | 0 mm | - | - | - |
| 1778082617 | 14.44° C | 76% | 993.8 hPa | 0 mm | - | - | - |
| 1778082312 | 15° C | 76% | 993.8 hPa | 0 mm | - | - | - |
| 1778082016 | 15° C | 75% | 993.8 hPa | 0 mm | - | - | - |
| 1778081713 | 15° C | 75% | 993.8 hPa | 0 mm | - | - | - |
| 1778081415 | 15.56° C | 74% | 993.7 hPa | 0 mm | - | - | - |
| 1778081113 | 15.56° C | 74% | 993.8 hPa | 0 mm | - | - | - |
| 1778080815 | 15.56° C | 73% | 993.8 hPa | 0 mm | - | - | - |
| 1778080513 | 16.11° C | 73% | 993.9 hPa | 0 mm | - | - | - |
| 1778080216 | 16.11° C | 72% | 993.8 hPa | 0 mm | - | - | - |
| 1778079912 | 16.11° C | 71% | 993.8 hPa | 0 mm | - | - | - |
| 1778079614 | 16.67° C | 70% | 993.7 hPa | 0 mm | - | - | - |
| 1778079312 | 16.67° C | 70% | 993.9 hPa | 0 mm | - | - | - |
| 1778079016 | 16.67° C | 70% | 993.8 hPa | 0 mm | - | - | - |
| 1778078712 | 16.67° C | 70% | 993.8 hPa | 0 mm | - | - | - |
| 1778078415 | 16.67° C | 69% | 993.9 hPa | 0 mm | - | - | - |
| 1778078113 | 17.22° C | 69% | 993.9 hPa | 0 mm | - | - | - |
| 1778077817 | 17.22° C | 69% | 993.9 hPa | 0 mm | - | - | - |
| 1778077512 | 17.22° C | 69% | 994 hPa | 0 mm | - | - | - |
| 1778077217 | 17.22° C | 69% | 994 hPa | 0 mm | - | - | - |
| 1778076912 | 17.22° C | 70% | 994.1 hPa | 0 mm | - | - | - |
| 1778076615 | 16.67° C | 70% | 994.1 hPa | 0 mm | - | - | - |
| 1778076313 | 16.67° C | 70% | 994.2 hPa | 0 mm | - | - | - |
| 1778076013 | 16.67° C | 70% | 994.3 hPa | 0 mm | - | - | - |
* Rain latest hour (hover to see other rain measurements)
** Current wind speed in m/s (hover to see current wind gust speed)